[[{"header":{"parameterUnit":"m.s-1","parameterCategory":1,"la1":30.2991,"la2":30.254,"lo1":-89.0895,"lo2":-89.0444,"dy":0.0017,"dx":0.0017,"nx":28,"ny":28,"refTime":"2025-05-30T03:00:00:Z","depth":0,"parameterNumber":2,"parameterNumberName":"U-component_of_WINDS"},"data":[0,0,0,0,0,0,0,0,0,0,0,0,0,0,0,0,0,0,0,0,0,0,0,0,0,0,0,0,0,0,0,0,0,0,0,0,0,0,0,0,0,0,0,0,0,0,0,0,0,0,0,0,0,0,0,0,0,0,-2.3717,-2.3716,0,-2.3647,-2.3646,-2.3646,-2.3548,-2.3546,-2.3544,-2.3543,-2.3471,-2.347,-2.347,0,0,0,0,0,0,0,0,0,0,0,0,0,-2.3767,-2.3766,-2.3717,-2.3716,-2.3716,-2.3647,-2.3646,-2.3645,-2.3548,-2.3546,-2.3544,-2.3542,-2.3471,-2.3471,-2.347,0,0,0,0,0,0,0,0,0,0,0,0,0,-2.3726,-2.3766,-2.3717,-2.3659,-2.3653,-2.3648,-2.3646,-2.3645,-2.3549,-2.3546,-2.3544,-2.3541,-2.3471,-2.3471,-2.347,-2.3516,0,0,-2.3468,-2.3468,0,0,0,0,0,0,0,0,-2.3728,-2.3724,-2.3668,-2.3663,-2.3656,-2.3604,-2.3637,-2.3602,-2.3549,-2.3588,-2.3543,-2.354,-2.3517,-2.3513,-2.3505,-2.3513,-2.351,-2.3468,-2.3468,-2.3468,-2.3468,0,0,0,0,0,0,0,-2.3731,-2.3727,-2.3689,-2.3668,-2.366,-2.3636,-2.3627,-2.363,-2.3567,-2.3585,-2.3577,-2.357,-2.3513,-2.3506,-2.3502,-2.3509,-2.3468,-2.3468,-2.3467,-2.3467,-2.355,-2.3553,0,0,0,0,0,0,-2.3743,-2.373,-2.3692,-2.3687,-2.3687,-2.3637,-2.3627,-2.3623,-2.3567,-2.3556,-2.3573,-2.3566,-2.3508,-2.3503,-2.35,-2.3549,-2.3468,-2.3467,-2.3467,-2.3548,-2.3551,-2.3554,0,0,0,0,0,0,-2.3744,-2.374,-2.3694,-2.3706,-2.3699,-2.3639,-2.3635,-2.3623,-2.3615,-2.3558,-2.3546,-2.3576,-2.3506,-2.35,-2.3513,-2.3545,-2.3467,-2.3466,-2.3545,-2.3549,-2.3552,-2.3649,0,0,0,0,0,0,-2.3746,-2.3741,-2.3758,-2.3708,-2.3699,-2.3709,-2.3637,-2.3623,-2.3614,-2.3605,-2.3558,-2.3548,-2.3503,-2.3514,-2.3512,-2.3543,-2.3466,-2.3542,-2.3547,-2.3551,-2.3642,-2.3655,-2.3666,0,0,0,0,0,-2.3748,-2.3788,-2.376,-2.3756,-2.3719,-2.3711,-2.3706,-2.3654,-2.3618,-2.3634,-2.3597,-2.355,-2.3542,-2.3516,-2.3513,-2.3544,-2.3539,-2.3545,-2.3551,-2.3637,-2.3653,-2.3666,0,0,0,0,0,0,-2.3844,-2.3781,-2.3748,-2.3773,-2.3749,-2.3695,-2.3714,-2.3672,-2.3657,-2.3649,-2.3585,-2.3575,-2.3595,-2.3571,-2.3543,-2.3586,-2.3534,-2.3539,-2.36,-2.3615,-2.3627,-2.3631,-2.3465,0,0,0,0,0,-2.3869,-2.3868,-2.3812,-2.384,-2.3829,-2.3774,-2.3769,-2.3731,-2.3702,-2.3691,-2.3655,-2.363,-2.3621,-2.3617,-2.3606,-2.3639,-2.3627,-2.3659,-2.3671,-2.3681,-2.3686,-2.37,-2.3714,-2.3573,-2.3573,-2.3572,0,0,-2.3918,-2.3884,-2.3887,-2.3858,-2.3835,-2.3835,-2.3766,-2.3769,-2.3769,-2.3692,-2.37,-2.3674,-2.3641,-2.3664,-2.3672,-2.3644,-2.3723,-2.3689,-2.3697,-2.3696,-2.3708,-2.3721,-2.3733,-2.3576,-2.3576,-2.3575,0,0,-2.4009,-2.3983,-2.4002,-2.398,-2.3945,-2.3908,-2.3914,-2.3866,-2.3845,-2.3854,-2.3795,-2.3794,-2.3782,-2.376,-2.3747,-2.3831,-2.3786,-2.383,-2.3892,-2.3906,-2.3917,-2.3927,-2.3955,-2.3966,-2.3835,-2.3835,-2.3835,0,-2.4075,-2.4073,-2.4018,-2.4025,-2.4014,-2.3945,-2.3963,-2.3945,-2.3908,-2.3902,-2.3872,-2.3854,-2.3827,-2.3843,-2.3864,-2.3856,-2.3859,-2.3833,-2.3921,-2.3929,-2.3937,-2.3963,-2.3974,-2.3841,-2.384,-2.3839,-2.3839,0,-2.4155,-2.4155,-2.4175,-2.4142,-2.4133,-2.4146,-2.4093,-2.4091,-2.4054,-2.402,-2.4029,-2.3995,-2.3975,-2.3977,-2.3941,-2.3988,-2.3971,-2.3932,-2.3878,-2.3957,-2.398,-2.399,-2.3848,-2.3846,-2.3845,-2.3843,0,0,-2.4302,-2.4239,-2.4247,-2.423,-2.4187,-2.4186,-2.4196,-2.4177,-2.4176,-2.4154,-2.416,-2.4151,-2.4114,-2.41,-2.4062,-2.4075,-2.4141,-2.4034,-2.4032,-2.4053,-2.4189,-2.4217,-2.423,-2.4113,-2.4114,-2.4116,-2.4191,0,-2.4383,-2.4396,-2.4347,-2.4372,-2.4371,-2.4306,-2.4315,-2.4289,-2.4259,-2.4253,-2.4219,-2.4213,-2.4166,-2.4157,-2.4167,-2.4131,-2.4167,-2.4126,-2.4116,-2.4116,-2.4124,-2.4242,-2.4272,-2.4344,-2.42,-2.4201,-2.4202,0,-2.4478,-2.446,-2.4486,-2.4441,-2.4439,-2.4447,-2.4426,-2.4422,-2.4392,-2.4368,-2.4353,-2.4309,-2.4315,-2.4266,-2.4273,-2.4245,-2.4239,-2.4221,-2.4222,-2.4217,-2.4163,-2.4238,-2.4366,-2.4376,-2.4217,-2.4215,-2.4214,0,-2.458,-2.4563,-2.4576,-2.4564,-2.4513,-2.452,-2.4499,-2.4467,-2.4458,-2.444,-2.4434,-2.4417,-2.4407,-2.4394,-2.4346,-2.4315,-2.4359,-2.4305,-2.4338,-2.4339,-2.4348,-2.4348,-2.4475,-2.4349,-2.4348,-2.4348,-2.4348,0,-2.4674,-2.4691,-2.4621,-2.4629,-2.4647,-2.4591,-2.461,-2.4582,-2.4554,-2.4555,-2.4499,-2.4501,-2.4438,-2.4433,-2.4396,-2.4406,-2.4403,-2.4383,-2.4373,-2.4387,-2.4389,-2.438,-2.4373,-2.4351,-2.435,-2.435,-2.4349,0,-2.479,-2.4744,-2.4753,-2.4704,-2.4692,-2.4707,-2.4665,-2.467,-2.4636,-2.4638,-2.4635,-2.4582,-2.4573,-2.4525,-2.4505,-2.448,-2.4503,-2.4483,-2.4513,-2.4505,-2.454,-2.4537,-2.4664,-2.4677,-2.4545,-2.4546,-2.4547,0,-2.4851,-2.4863,-2.4816,-2.4812,-2.4794,-2.4789,-2.478,-2.4726,-2.4719,-2.4686,-2.4695,-2.4682,-2.4668,-2.4657,-2.4616,-2.46,-2.4578,-2.4624,-2.4575,-2.4589,-2.4576,-2.4575,-2.4575,-2.4634,-2.4636,-2.4637,-2.4638,0,-2.4965,-2.4942,-2.4931,-2.4913,-2.4904,-2.4887,-2.4867,-2.4868,-2.4807,-2.4803,-2.4793,-2.4782,-2.4762,-2.4749,-2.4726,-2.4704,-2.4661,-2.4654,-2.466,-2.4674,-2.4689,-2.4679,-2.4539,-2.4651,-2.4649,-2.4649,-2.4648,-2.4647,-2.5054,-2.5061,-2.5029,-2.5019,-2.4998,-2.498,-2.4982,-2.4949,-2.494,-2.4919,-2.4888,-2.4882,-2.4851,-2.4817,-2.4798,-2.4792,-2.4768,-2.4777,-2.4779,-2.4782,-2.4789,-2.4693,-2.4788,-2.4788,-2.4788,-2.4787,-2.4787,0,-2.5163,-2.5139,-2.5131,-2.5104,-2.5096,-2.5057,-2.5033,-2.5029,-2.5024,-2.5,-2.4987,-2.4976,-2.4963,-2.4922,-2.4905,-2.4908,-2.4888,-2.4905,-2.4903,-2.4899,-2.4813,-2.4808,-2.4922,-2.4922,-2.4922,-2.4922,-2.4922,-2.4922,-2.5218,-2.5228,-2.5201,-2.52,-2.5176,-2.517,-2.5159,-2.5142,-2.5122,-2.5112,-2.5101,-2.5074,-2.5043,-2.5023,-2.5009,-2.4997,-2.4993,-2.5016,-2.4998,-2.4918,-2.4905,-2.4892,-2.4887,-2.5016,-2.5017,-2.5084,-2.5084,-2.5085]},{"header":{"parameterUnit":"m.s-1","parameterCategory":1,"la1":30.2991,"la2":30.254,"lo1":-89.0895,"lo2":-89.0444,"dy":0.0017,"dx":0.0017,"nx":28,"ny":28,"refTime":"2025-05-30T03:00:00:Z","depth":0,"parameterNumber":3,"parameterNumberName":"V-component_of_WINDS"},"data":[0,0,0,0,0,0,0,0,0,0,0,0,0,0,0,0,0,0,0,0,0,0,0,0,0,0,0,0,0,0,0,0,0,0,0,0,0,0,0,0,0,0,0,0,0,0,0,0,0,0,0,0,0,0,0,0,0,0,2.5063,2.5064,0,2.5154,2.5155,2.5156,2.5166,2.5165,2.5164,2.5163,2.5254,2.5257,2.5261,0,0,0,0,0,0,0,0,0,0,0,0,0,2.4894,2.4897,2.5063,2.5064,2.5065,2.5154,2.5155,2.5157,2.5166,2.5165,2.5164,2.5163,2.5253,2.5257,2.5261,0,0,0,0,0,0,0,0,0,0,0,0,0,2.4974,2.4898,2.5062,2.508,2.5083,2.5154,2.5155,2.5157,2.5166,2.5165,2.5164,2.5162,2.5252,2.5257,2.5261,2.532,0,0,2.5277,2.5279,0,0,0,0,0,0,0,0,2.497,2.498,2.5077,2.5079,2.5082,2.5147,2.5129,2.5211,2.5167,2.5135,2.5163,2.5162,2.522,2.5227,2.5247,2.5324,2.5328,2.5277,2.528,2.5282,2.5283,0,0,0,0,0,0,0,2.4964,2.4977,2.5099,2.5078,2.5082,2.5083,2.5093,2.5145,2.5184,2.5137,2.5138,2.5149,2.5221,2.5242,2.5249,2.5329,2.5277,2.5281,2.5284,2.5286,2.546,2.5461,0,0,0,0,0,0,2.4956,2.4972,2.5096,2.5101,2.5022,2.5087,2.5099,2.5128,2.5183,2.519,2.515,2.5149,2.5235,2.5244,2.5253,2.5326,2.5282,2.5287,2.5289,2.5458,2.546,2.5462,0,0,0,0,0,0,2.4952,2.4966,2.5092,2.5037,2.5053,2.5092,2.5125,2.513,2.5152,2.5193,2.52,2.5165,2.5234,2.5246,2.5304,2.5329,2.5289,2.5293,2.5456,2.5459,2.5461,2.5472,0,0,0,0,0,0,2.4947,2.4965,2.4988,2.5038,2.5056,2.5142,2.5126,2.5133,2.5161,2.516,2.5209,2.5216,2.5234,2.5296,2.5308,2.5335,2.5297,2.5454,2.5457,2.546,2.5469,2.5474,2.5479,0,0,0,0,0,2.4941,2.4986,2.4989,2.5004,2.5086,2.5144,2.5154,2.5175,2.5163,2.5186,2.5213,2.5214,2.5324,2.5302,2.5316,2.5344,2.5452,2.5456,2.546,2.5467,2.5473,2.5478,0,0,0,0,0,0,2.4938,2.4993,2.4997,2.506,2.5097,2.5145,2.5175,2.518,2.5221,2.5219,2.5242,2.5253,2.531,2.5333,2.5307,2.5404,2.5387,2.5394,2.5388,2.5394,2.5398,2.5392,2.5301,0,0,0,0,0,2.4945,2.4988,2.5033,2.5085,2.5103,2.5136,2.5162,2.5175,2.5214,2.5229,2.526,2.5297,2.534,2.5368,2.541,2.5472,2.5483,2.5499,2.5503,2.5507,2.5513,2.5549,2.5557,2.5474,2.5474,2.5474,0,0,2.4959,2.4994,2.502,2.5085,2.5115,2.5159,2.5149,2.5195,2.5228,2.5236,2.5294,2.5317,2.536,2.5421,2.5449,2.5441,2.5538,2.5512,2.5514,2.5518,2.5554,2.5561,2.5568,2.5477,2.5476,2.5476,0,0,2.5008,2.5038,2.5086,2.5117,2.5163,2.5185,2.5196,2.5244,2.526,2.5318,2.5325,2.5364,2.5437,2.5468,2.5493,2.5555,2.5558,2.5567,2.5592,2.5627,2.5634,2.564,2.5663,2.5671,2.5573,2.5573,2.5573,0,2.5019,2.5087,2.5109,2.5156,2.5184,2.5195,2.5242,2.5271,2.5328,2.5348,2.5338,2.5432,2.5461,2.553,2.5545,2.5565,2.5579,2.5563,2.5631,2.5637,2.5643,2.5666,2.5674,2.5574,2.5574,2.5574,2.5574,0,2.5099,2.5146,2.5178,2.5235,2.5267,2.5314,2.5343,2.5372,2.5382,2.5405,2.5464,2.55,2.555,2.5567,2.5576,2.5638,2.5632,2.5626,2.561,2.5652,2.5673,2.5682,2.5575,2.5575,2.5575,2.5574,0,0,2.5149,2.5218,2.523,2.5257,2.5309,2.5345,2.5392,2.5443,2.5468,2.5507,2.5548,2.561,2.5606,2.5635,2.5648,2.5679,2.5727,2.567,2.5671,2.568,2.5798,2.5803,2.5812,2.5729,2.5731,2.5732,2.5795,0,2.5205,2.5291,2.5313,2.5386,2.543,2.5441,2.5482,2.5519,2.5541,2.5581,2.5604,2.5649,2.564,2.5657,2.5688,2.5715,2.5751,2.571,2.5767,2.5769,2.5758,2.5823,2.5828,2.5886,2.5803,2.5805,2.5806,0,2.5282,2.5325,2.5403,2.5451,2.547,2.5507,2.5556,2.5594,2.5635,2.5649,2.5682,2.5692,2.5742,2.5722,2.5791,2.5763,2.5787,2.5804,2.5807,2.5814,2.5791,2.5834,2.5905,2.5914,2.5819,2.5818,2.5817,0,2.5312,2.5389,2.5446,2.5468,2.5526,2.5552,2.5576,2.5617,2.5646,2.5688,2.5707,2.5753,2.5779,2.5814,2.5837,2.582,2.5905,2.5886,2.5918,2.5918,2.5937,2.5936,2.6014,2.595,2.595,2.595,2.595,0,2.5374,2.5421,2.5461,2.5497,2.5551,2.5574,2.5627,2.5652,2.5688,2.5728,2.5739,2.5776,2.5803,2.5844,2.5862,2.5917,2.5928,2.5941,2.5946,2.5941,2.594,2.5959,2.5956,2.5952,2.5952,2.5951,2.5951,0,2.5417,2.5446,2.5509,2.5558,2.5572,2.561,2.5652,2.5686,2.5709,2.576,2.5773,2.5808,2.5857,2.5883,2.5944,2.5956,2.6018,2.602,2.6005,2.6007,2.6039,2.6036,2.6133,2.6148,2.6072,2.6073,2.6074,0,2.5455,2.5492,2.5546,2.5575,2.5601,2.5646,2.5676,2.5701,2.5732,2.5783,2.5811,2.5861,2.5902,2.598,2.6011,2.6057,2.6061,2.6092,2.6068,2.6063,2.6063,2.6062,2.6066,2.6096,2.6097,2.6098,2.6098,0,2.552,2.5532,2.5576,2.5626,2.5662,2.5701,2.574,2.5763,2.5794,2.5828,2.5879,2.5911,2.5974,2.6024,2.6073,2.6098,2.6104,2.6105,2.6116,2.6112,2.6103,2.611,2.6018,2.6103,2.6103,2.6102,2.6102,2.6102,2.5563,2.5597,2.5641,2.569,2.5722,2.5759,2.5794,2.5822,2.5865,2.592,2.5931,2.5985,2.6026,2.6094,2.612,2.6162,2.6156,2.617,2.6174,2.6178,2.618,2.6095,2.6171,2.6171,2.6171,2.6171,2.6171,0,2.563,2.5659,2.5703,2.5759,2.5797,2.58,2.5843,2.5875,2.5923,2.5962,2.6003,2.6062,2.611,2.6145,2.6194,2.6222,2.6226,2.6234,2.6233,2.6239,2.6182,2.6169,2.623,2.623,2.623,2.623,2.623,2.623,2.5669,2.5728,2.5746,2.5821,2.5849,2.5904,2.5929,2.5962,2.5994,2.6059,2.61,2.6123,2.616,2.6213,2.6257,2.6266,2.6284,2.6293,2.6302,2.6249,2.6243,2.6237,2.6225,2.6296,2.6296,2.6356,2.6356,2.6357]}]]